Location: Austin
(30.3000°N, 97.7500°W)
Time: 10:37:39
(UTC-05:00)

Aureole 1 Rocket - Pass Details

Date: 05 September 2024
Orbit: 376 x 1250 km, 73.9° (Epoch: 10 September)

Event Time Altitude Azimuth Distance (km) Brightness Sun altitude
Rises 21:23:23 0° 341° (NNW) 2,921 7.1 -20.8°
Reaches altitude 10° 21:25:53 10° 339° (NNW) 1,871 6.1 -21.3°
Maximum altitude 21:29:55 70° 256° (WSW) 516 2.7 -22.1°
Enters shadow 21:30:09 67° 224° (SW) 522 2.6 -22.1°
